Time,TemperatureF,DewpointF,PressureIn,WindDirection,WindDirectionDegrees,WindSpeedMPH,WindSpeedGustMPH,Humidity,HourlyPrecipIn,Conditions,Clouds,dailyrainin,SoftwareType,DateUTC
2013-01-26 00:00:00,24.8,18.6,29.99,South,174,0.0,0.0,77,0.00,,---,0.00,VWS V14.00,2013-01-26 05:00:00,
2013-01-26 00:01:00,24.8,18.6,29.99,South,174,0.0,0.0,77,0.00,,---,0.00,VWS V14.00,2013-01-26 05:01:00,
2013-01-26 00:06:00,24.8,18.6,29.99,South,174,0.0,0.0,77,0.00,,---,0.00,VWS V14.00,2013-01-26 05:06:00,
2013-01-26 00:11:00,24.8,18.6,29.99,South,174,0.0,0.0,77,0.00,,---,0.00,VWS V14.00,2013-01-26 05:11:00,
2013-01-26 00:16:00,24.9,18.7,29.99,South,174,0.0,0.0,77,0.00,,---,0.00,VWS V14.00,2013-01-26 05:16:00,
2013-01-26 00:21:00,24.9,18.7,29.99,South,175,0.0,2.0,77,0.00,,---,0.00,VWS V14.00,2013-01-26 05:21:00,
2013-01-26 00:26:00,25.0,18.8,29.98,South,175,0.0,2.0,77,0.00,,---,0.00,VWS V14.00,2013-01-26 05:26:00,
2013-01-26 00:31:00,24.9,18.7,29.98,South,175,0.0,0.0,77,0.00,,---,0.00,VWS V14.00,2013-01-26 05:31:00,
2013-01-26 00:36:00,24.9,18.7,29.98,South,175,0.0,0.0,77,0.00,,---,0.00,VWS V14.00,2013-01-26 05:36:00,
2013-01-26 00:41:00,24.9,19.0,29.98,South,175,0.0,0.0,78,0.00,,---,0.00,VWS V14.00,2013-01-26 05:41:00,
2013-01-26 00:46:00,24.9,19.0,29.99,South,175,0.0,0.0,78,0.00,,---,0.00,VWS V14.00,2013-01-26 05:46:00,
2013-01-26 00:51:00,24.9,19.0,29.98,South,175,0.0,0.0,78,0.00,,---,0.00,VWS V14.00,2013-01-26 05:51:00,
2013-01-26 00:56:00,24.9,19.0,29.98,South,174,0.0,0.0,78,0.00,,---,0.00,VWS V14.00,2013-01-26 05:56:00,
2013-01-26 01:01:00,24.8,18.9,29.98,South,174,0.0,0.0,78,0.00,,---,0.00,VWS V14.00,2013-01-26 06:01:00,
2013-01-26 01:06:00,24.8,18.9,29.99,South,174,0.0,0.0,78,0.00,,---,0.00,VWS V14.00,2013-01-26 06:06:00,
2013-01-26 01:11:00,24.7,18.8,29.99,South,174,0.0,0.0,78,0.00,,---,0.00,VWS V14.00,2013-01-26 06:11:00,
2013-01-26 01:16:00,24.7,19.1,29.98,South,174,0.0,0.0,79,0.00,,---,0.00,VWS V14.00,2013-01-26 06:16:00,
2013-01-26 01:21:00,24.7,19.1,29.99,South,174,0.0,0.0,79,0.00,,---,0.00,VWS V14.00,2013-01-26 06:21:00,
2013-01-26 01:26:00,24.7,18.8,29.99,South,173,0.0,0.0,78,0.00,,---,0.00,VWS V14.00,2013-01-26 06:26:00,
2013-01-26 01:31:00,24.8,18.9,29.99,SSE,164,0.0,1.0,78,0.00,,---,0.00,VWS V14.00,2013-01-26 06:31:00,
2013-01-26 01:36:00,24.8,19.2,29.99,SSE,164,0.0,1.0,79,0.00,,---,0.00,VWS V14.00,2013-01-26 06:36:00,
2013-01-26 01:41:00,24.8,18.9,29.99,SSE,161,0.0,1.0,78,0.00,,---,0.00,VWS V14.00,2013-01-26 06:41:00,
2013-01-26 01:46:00,24.9,19.0,29.99,SE,146,2.0,2.0,78,0.00,,---,0.00,VWS V14.00,2013-01-26 06:46:00,
2013-01-26 01:51:00,24.9,19.0,29.99,SE,146,0.0,2.0,78,0.00,,---,0.00,VWS V14.00,2013-01-26 06:51:00,
2013-01-26 01:56:00,24.9,19.0,29.99,SE,144,0.0,2.0,78,0.00,,---,0.00,VWS V14.00,2013-01-26 06:56:00,
2013-01-26 02:01:00,24.9,19.0,30.00,SE,141,0.0,2.0,78,0.00,,---,0.00,VWS V14.00,2013-01-26 07:01:00,
2013-01-26 02:06:00,25.0,19.1,30.00,SE,125,0.0,2.0,78,0.00,,---,0.00,VWS V14.00,2013-01-26 07:06:00,
2013-01-26 02:11:00,25.0,19.1,30.00,ESE,123,0.0,2.0,78,0.00,,---,0.00,VWS V14.00,2013-01-26 07:11:00,
2013-01-26 02:16:00,25.0,18.8,30.00,East,96,0.0,2.0,77,0.00,,---,0.00,VWS V14.00,2013-01-26 07:16:00,
2013-01-26 02:21:00,25.1,19.2,30.00,East,91,0.0,2.0,78,0.00,,---,0.00,VWS V14.00,2013-01-26 07:21:00,
2013-01-26 02:26:00,25.1,19.2,30.00,NNE,19,0.0,4.0,78,0.00,,---,0.00,VWS V14.00,2013-01-26 07:26:00,
2013-01-26 02:31:00,25.1,19.2,30.00,NNE,19,1.0,4.0,78,0.00,,---,0.00,VWS V14.00,2013-01-26 07:31:00,
2013-01-26 02:36:00,25.0,18.8,30.00,NE,34,2.0,4.0,77,0.00,,---,0.00,VWS V14.00,2013-01-26 07:36:00,
2013-01-26 02:41:00,25.0,18.8,30.00,NNE,15,3.0,7.0,77,0.00,,---,0.00,VWS V14.00,2013-01-26 07:41:00,
2013-01-26 02:46:00,25.0,18.8,30.00,NNE,21,0.0,7.0,77,0.00,,---,0.00,VWS V14.00,2013-01-26 07:46:00,
2013-01-26 02:51:00,25.0,18.8,30.01,NNE,26,4.0,7.0,77,0.00,,---,0.00,VWS V14.00,2013-01-26 07:51:00,
2013-01-26 02:56:00,24.9,18.7,30.01,North,10,4.0,7.0,77,0.00,,---,0.00,VWS V14.00,2013-01-26 07:56:00,
2013-01-26 03:01:00,24.9,18.7,30.02,North,360,3.0,7.0,77,0.00,,---,0.00,VWS V14.00,2013-01-26 08:01:00,
2013-01-26 03:06:00,24.8,18.6,30.02,NNE,15,0.0,7.0,77,0.00,,---,0.00,VWS V14.00,2013-01-26 08:06:00,
2013-01-26 03:11:00,24.8,18.6,30.02,NNE,13,6.0,7.0,77,0.00,,---,0.00,VWS V14.00,2013-01-26 08:11:00,
2013-01-26 03:16:00,24.8,18.9,30.02,North,10,0.0,7.0,78,0.00,,---,0.00,VWS V14.00,2013-01-26 08:16:00,
2013-01-26 03:21:00,24.7,18.8,30.01,NNE,13,4.0,8.0,78,0.00,,---,0.00,VWS V14.00,2013-01-26 08:21:00,
2013-01-26 03:26:00,24.5,18.6,30.01,North,350,4.0,8.0,78,0.00,,---,0.00,VWS V14.00,2013-01-26 08:26:00,
2013-01-26 03:31:00,24.3,18.4,30.01,North,355,4.0,6.0,78,0.00,,---,0.00,VWS V14.00,2013-01-26 08:31:00,
2013-01-26 03:36:00,24.2,18.6,30.01,North,5,3.0,6.0,79,0.00,,---,0.00,VWS V14.00,2013-01-26 08:36:00,
2013-01-26 03:40:00,24.0,18.5,30.02,North,5,0.0,6.0,79,0.00,,---,0.00,VWS V14.00,2013-01-26 08:40:00,
2013-01-26 03:45:00,23.9,18.4,30.02,North,5,1.0,6.0,79,0.00,,---,0.00,VWS V14.00,2013-01-26 08:45:00,
2013-01-26 03:50:00,23.9,18.4,30.02,North,5,1.0,6.0,79,0.00,,---,0.00,VWS V14.00,2013-01-26 08:50:00,
2013-01-26 03:55:00,23.9,18.6,30.03,North,5,0.0,6.0,80,0.00,,---,0.00,VWS V14.00,2013-01-26 08:55:00,
2013-01-26 04:00:00,23.9,18.6,30.03,North,5,2.0,4.0,80,0.00,,---,0.00,VWS V14.00,2013-01-26 09:00:00,
2013-01-26 04:05:00,24.0,18.7,30.03,NNE,17,0.0,5.0,80,0.00,,---,0.00,VWS V14.00,2013-01-26 09:05:00,
2013-01-26 04:10:00,24.2,18.9,30.03,NNE,15,0.0,5.0,80,0.00,,---,0.00,VWS V14.00,2013-01-26 09:10:00,
2013-01-26 04:15:00,24.3,18.7,30.03,NNE,13,4.0,5.0,79,0.00,,---,0.00,VWS V14.00,2013-01-26 09:15:00,
2013-01-26 04:20:00,24.4,18.8,30.03,NNE,27,1.0,5.0,79,0.00,,---,0.00,VWS V14.00,2013-01-26 09:20:00,
2013-01-26 04:25:00,24.5,18.9,30.03,NNE,27,0.0,5.0,79,0.00,,---,0.00,VWS V14.00,2013-01-26 09:25:00,
2013-01-26 04:30:00,24.6,18.7,30.03,NNE,27,0.0,2.0,78,0.00,,---,0.00,VWS V14.00,2013-01-26 09:30:00,
2013-01-26 04:35:00,24.6,18.7,30.04,NNE,27,0.0,3.0,78,0.00,,---,0.00,VWS V14.00,2013-01-26 09:35:00,
2013-01-26 04:40:00,24.7,18.8,30.04,ENE,58,1.0,4.0,78,0.00,,---,0.00,VWS V14.00,2013-01-26 09:40:00,
2013-01-26 04:45:00,24.7,18.8,30.04,North,9,1.0,6.0,78,0.00,,---,0.00,VWS V14.00,2013-01-26 09:45:00,
2013-01-26 04:50:00,24.8,18.9,30.05,ENE,61,0.0,6.0,78,0.00,,---,0.00,VWS V14.00,2013-01-26 09:50:00,
2013-01-26 04:55:00,24.8,18.6,30.05,NNE,27,1.0,6.0,77,0.00,,---,0.00,VWS V14.00,2013-01-26 09:55:00,
2013-01-26 05:00:00,24.8,18.6,30.05,NE,38,1.0,2.0,77,0.00,,---,0.00,VWS V14.00,2013-01-26 10:00:00,
2013-01-26 05:05:00,24.8,18.6,30.05,NE,38,1.0,4.0,77,0.00,,---,0.00,VWS V14.00,2013-01-26 10:05:00,
2013-01-26 05:10:00,24.8,18.6,30.05,NE,38,0.0,4.0,77,0.00,,---,0.00,VWS V14.00,2013-01-26 10:10:00,
2013-01-26 05:15:00,24.8,18.6,30.06,NE,38,0.0,4.0,77,0.00,,---,0.00,VWS V14.00,2013-01-26 10:15:00,
2013-01-26 05:20:00,24.8,18.6,30.06,NE,38,0.0,4.0,77,0.00,,---,0.00,VWS V14.00,2013-01-26 10:20:00,
2013-01-26 05:25:00,24.8,18.9,30.06,NE,40,0.0,4.0,78,0.00,,---,0.00,VWS V14.00,2013-01-26 10:25:00,
2013-01-26 05:30:00,24.8,18.9,30.06,NE,40,0.0,0.0,78,0.00,,---,0.00,VWS V14.00,2013-01-26 10:30:00,
2013-01-26 05:35:00,24.7,18.8,30.06,NE,40,1.0,3.0,78,0.00,,---,0.00,VWS V14.00,2013-01-26 10:35:00,
2013-01-26 05:40:00,24.7,18.8,30.07,NE,44,0.0,3.0,78,0.00,,---,0.00,VWS V14.00,2013-01-26 10:40:00,
2013-01-26 05:45:00,24.6,18.7,30.07,NE,44,2.0,3.0,78,0.00,,---,0.00,VWS V14.00,2013-01-26 10:45:00,
2013-01-26 05:50:00,24.5,18.9,30.07,NE,44,1.0,3.0,79,0.00,,---,0.00,VWS V14.00,2013-01-26 10:50:00,
2013-01-26 05:55:00,24.5,18.9,30.07,NE,42,0.0,3.0,79,0.00,,---,0.00,VWS V14.00,2013-01-26 10:55:00,
2013-01-26 06:00:00,24.4,18.8,30.07,NE,42,0.0,0.0,79,0.00,,---,0.00,VWS V14.00,2013-01-26 11:00:00,
2013-01-26 06:05:00,24.4,18.8,30.07,NE,42,0.0,1.0,79,0.00,,---,0.00,VWS V14.00,2013-01-26 11:05:00,
2013-01-26 06:10:00,24.3,19.0,30.07,NE,42,0.0,1.0,80,0.00,,---,0.00,VWS V14.00,2013-01-26 11:10:00,
2013-01-26 06:15:00,24.3,19.0,30.08,NE,42,0.0,1.0,80,0.00,,---,0.00,VWS V14.00,2013-01-26 11:15:00,
2013-01-26 06:20:00,24.3,19.0,30.08,NE,42,0.0,1.0,80,0.00,,---,0.00,VWS V14.00,2013-01-26 11:20:00,
2013-01-26 06:25:00,24.3,19.0,30.08,NE,42,0.0,1.0,80,0.00,,---,0.00,VWS V14.00,2013-01-26 11:25:00,
2013-01-26 06:30:00,24.3,19.0,30.08,NE,42,1.0,2.0,80,0.00,,---,0.00,VWS V14.00,2013-01-26 11:30:00,
2013-01-26 06:35:00,24.4,19.4,30.08,NE,42,0.0,2.0,81,0.00,,---,0.00,VWS V14.00,2013-01-26 11:35:00,
2013-01-26 06:40:00,24.3,19.3,30.09,NE,42,0.0,3.0,81,0.00,,---,0.00,VWS V14.00,2013-01-26 11:40:00,
2013-01-26 06:45:00,24.4,19.4,30.09,NE,42,0.0,3.0,81,0.00,,---,0.00,VWS V14.00,2013-01-26 11:45:00,
2013-01-26 06:50:00,24.3,19.3,30.09,NE,42,1.0,3.0,81,0.00,,---,0.00,VWS V14.00,2013-01-26 11:50:00,
2013-01-26 06:55:00,24.3,19.3,30.09,NE,40,0.0,5.0,81,0.00,,---,0.00,VWS V14.00,2013-01-26 11:55:00,
2013-01-26 07:00:00,24.2,19.2,30.09,NE,40,3.0,3.0,81,0.00,,---,0.00,VWS V14.00,2013-01-26 12:00:00,
2013-01-26 07:05:00,24.1,19.1,30.10,NE,38,1.0,4.0,81,0.00,,---,0.00,VWS V14.00,2013-01-26 12:05:00,
2013-01-26 07:10:00,24.0,19.0,30.10,NNE,32,2.0,5.0,81,0.00,,---,0.00,VWS V14.00,2013-01-26 12:10:00,
2013-01-26 07:15:00,23.9,18.9,30.10,NE,34,3.0,5.0,81,0.00,,---,0.00,VWS V14.00,2013-01-26 12:15:00,
2013-01-26 07:20:00,23.8,18.8,30.10,NE,34,2.0,5.0,81,0.00,,---,0.00,VWS V14.00,2013-01-26 12:20:00,
2013-01-26 07:25:00,23.8,18.8,30.11,NNE,32,3.0,5.0,81,0.00,,---,0.00,VWS V14.00,2013-01-26 12:25:00,
2013-01-26 07:30:00,23.8,18.8,30.11,NNE,32,0.0,0.0,81,0.00,,---,0.00,VWS V14.00,2013-01-26 12:30:00,
2013-01-26 07:35:00,23.8,18.8,30.11,NNE,32,1.0,1.0,81,0.00,,---,0.00,VWS V14.00,2013-01-26 12:35:00,
2013-01-26 07:40:00,23.8,18.8,30.11,NNE,32,3.0,3.0,81,0.00,,---,0.00,VWS V14.00,2013-01-26 12:40:00,
2013-01-26 07:45:00,23.7,18.7,30.12,NE,34,0.0,3.0,81,0.00,,---,0.00,VWS V14.00,2013-01-26 12:45:00,
2013-01-26 07:50:00,23.7,18.7,30.12,NE,34,0.0,3.0,81,0.00,,---,0.00,VWS V14.00,2013-01-26 12:50:00,
2013-01-26 07:55:00,23.7,18.7,30.12,NE,34,0.0,3.0,81,0.00,,---,0.00,VWS V14.00,2013-01-26 12:55:00,
2013-01-26 08:00:00,23.7,18.7,30.12,NE,34,0.0,2.0,81,0.00,,---,0.00,VWS V14.00,2013-01-26 13:00:00,
2013-01-26 08:05:00,23.8,18.8,30.12,NE,34,0.0,2.0,81,0.00,,---,0.00,VWS V14.00,2013-01-26 13:05:00,
2013-01-26 08:10:00,23.8,19.1,30.13,NE,34,0.0,2.0,82,0.00,,---,0.00,VWS V14.00,2013-01-26 13:10:00,
2013-01-26 08:15:00,23.9,18.9,30.12,NE,34,0.0,2.0,81,0.00,,---,0.00,VWS V14.00,2013-01-26 13:15:00,
2013-01-26 08:20:00,23.9,18.9,30.13,NE,34,0.0,2.0,81,0.00,,---,0.00,VWS V14.00,2013-01-26 13:20:00,
2013-01-26 08:25:00,24.1,19.4,30.13,NE,34,0.0,2.0,82,0.00,,---,0.00,VWS V14.00,2013-01-26 13:25:00,
2013-01-26 08:30:00,24.2,19.2,30.13,NE,34,0.0,0.0,81,0.00,,---,0.00,VWS V14.00,2013-01-26 13:30:00,
2013-01-26 08:35:00,24.3,19.3,30.13,NE,34,0.0,2.0,81,0.00,,---,0.00,VWS V14.00,2013-01-26 13:35:00,
2013-01-26 08:40:00,24.5,19.5,30.13,NE,34,0.0,2.0,81,0.00,,---,0.00,VWS V14.00,2013-01-26 13:40:00,
2013-01-26 08:45:00,24.6,19.6,30.13,NE,34,0.0,2.0,81,0.00,,---,0.00,VWS V14.00,2013-01-26 13:45:00,
2013-01-26 08:50:00,24.7,19.7,30.13,NE,34,0.0,2.0,81,0.00,,---,0.00,VWS V14.00,2013-01-26 13:50:00,
2013-01-26 08:55:00,24.8,19.8,30.13,NE,34,0.0,2.0,81,0.00,,---,0.00,VWS V14.00,2013-01-26 13:55:00,
2013-01-26 09:00:00,24.9,19.9,30.13,NE,34,0.0,0.0,81,0.00,,---,0.00,VWS V14.00,2013-01-26 14:00:00,
2013-01-26 09:05:00,25.1,20.1,30.14,NE,34,0.0,0.0,81,0.00,,---,0.00,VWS V14.00,2013-01-26 14:05:00,
2013-01-26 09:10:00,25.3,20.3,30.14,NE,34,0.0,0.0,81,0.00,,---,0.00,VWS V14.00,2013-01-26 14:10:00,
2013-01-26 09:15:00,25.5,20.5,30.14,NE,34,1.0,1.0,81,0.00,,---,0.00,VWS V14.00,2013-01-26 14:15:00,
2013-01-26 09:20:00,25.5,20.2,30.14,NE,34,0.0,1.0,80,0.00,,---,0.00,VWS V14.00,2013-01-26 14:20:00,
2013-01-26 09:25:00,25.7,20.4,30.15,NE,34,0.0,1.0,80,0.00,,---,0.00,VWS V14.00,2013-01-26 14:25:00,
2013-01-26 09:30:00,25.9,20.6,30.15,NE,34,1.0,2.0,80,0.00,,---,0.00,VWS V14.00,2013-01-26 14:30:00,
2013-01-26 09:35:00,26.1,20.8,30.15,NE,34,0.0,2.0,80,0.00,,---,0.00,VWS V14.00,2013-01-26 14:35:00,
2013-01-26 09:40:00,26.3,21.0,30.15,NW,313,0.0,4.0,80,0.00,,---,0.00,VWS V14.00,2013-01-26 14:40:00,
2013-01-26 09:45:00,26.5,21.2,30.15,NW,314,0.0,4.0,80,0.00,,---,0.00,VWS V14.00,2013-01-26 14:45:00,
2013-01-26 09:50:00,26.9,21.6,30.15,NW,313,0.0,4.0,80,0.00,,---,0.00,VWS V14.00,2013-01-26 14:50:00,
2013-01-26 09:55:00,26.9,21.3,30.16,NW,313,0.0,4.0,79,0.00,,---,0.00,VWS V14.00,2013-01-26 14:55:00,
2013-01-26 10:00:00,27.4,22.0,30.16,NW,313,0.0,2.0,80,0.00,,---,0.00,VWS V14.00,2013-01-26 15:00:00,
2013-01-26 10:05:00,28.3,22.6,30.16,WSW,258,0.0,3.0,79,0.00,,---,0.00,VWS V14.00,2013-01-26 15:05:00,
2013-01-26 10:10:00,28.8,22.5,30.16,SW,232,0.0,3.0,77,0.00,,---,0.00,VWS V14.00,2013-01-26 15:10:00,
2013-01-26 10:15:00,29.2,23.2,30.16,SW,231,0.0,3.0,78,0.00,,---,0.00,VWS V14.00,2013-01-26 15:15:00,
2013-01-26 10:20:00,29.6,23.3,30.16,SW,219,0.0,3.0,77,0.00,,---,0.00,VWS V14.00,2013-01-26 15:20:00,
2013-01-26 10:25:00,29.9,23.6,30.16,SSW,202,0.0,3.0,77,0.00,,---,0.00,VWS V14.00,2013-01-26 15:25:00,
2013-01-26 10:30:00,30.2,23.9,30.17,SSW,205,0.0,3.0,77,0.00,,---,0.00,VWS V14.00,2013-01-26 15:30:00,
2013-01-26 10:35:00,30.1,23.8,30.16,SSW,205,0.0,3.0,77,0.00,,---,0.00,VWS V14.00,2013-01-26 15:35:00,
2013-01-26 10:40:00,30.8,24.1,30.16,SSW,199,0.0,3.0,76,0.00,,---,0.00,VWS V14.00,2013-01-26 15:40:00,
2013-01-26 10:45:00,31.0,24.3,30.17,SSW,202,2.0,4.0,76,0.00,,---,0.00,VWS V14.00,2013-01-26 15:45:00,
2013-01-26 10:50:00,30.9,24.5,30.16,SSW,210,3.0,4.0,77,0.00,,---,0.00,VWS V14.00,2013-01-26 15:50:00,
2013-01-26 10:55:00,31.0,24.3,30.16,SSW,209,0.0,4.0,76,0.00,,---,0.00,VWS V14.00,2013-01-26 15:55:00,
2013-01-26 11:00:00,31.2,24.5,30.16,SSW,209,1.0,2.0,76,0.00,,---,0.00,VWS V14.00,2013-01-26 16:00:00,
2013-01-26 11:05:00,31.2,24.2,30.16,SSW,209,0.0,3.0,75,0.00,,---,0.00,VWS V14.00,2013-01-26 16:05:00,
2013-01-26 11:10:00,31.9,24.9,30.16,SSW,200,0.0,3.0,75,0.00,,---,0.00,VWS V14.00,2013-01-26 16:10:00,
2013-01-26 11:15:00,32.0,24.3,30.16,SSW,200,0.0,3.0,73,0.00,,---,0.00,VWS V14.00,2013-01-26 16:15:00,
2013-01-26 11:20:00,32.0,24.3,30.16,SSW,200,0.0,3.0,73,0.00,,---,0.00,VWS V14.00,2013-01-26 16:20:00,
2013-01-26 11:25:00,32.6,24.6,30.16,SSW,202,1.0,3.0,72,0.00,,---,0.00,VWS V14.00,2013-01-26 16:25:00,
2013-01-26 11:30:00,32.4,24.4,30.16,SSW,208,0.0,1.0,72,0.00,,---,0.00,VWS V14.00,2013-01-26 16:30:00,
2013-01-26 11:35:00,32.4,24.4,30.16,SSW,211,0.0,4.0,72,0.00,,---,0.00,VWS V14.00,2013-01-26 16:35:00,
2013-01-26 11:40:00,32.6,24.6,30.16,SW,214,0.0,4.0,72,0.00,,---,0.00,VWS V14.00,2013-01-26 16:40:00,
2013-01-26 11:45:00,32.7,24.7,30.16,SSW,209,0.0,4.0,72,0.00,,---,0.00,VWS V14.00,2013-01-26 16:45:00,
2013-01-26 11:50:00,32.8,24.8,30.16,SSE,164,0.0,5.0,72,0.00,,---,0.00,VWS V14.00,2013-01-26 16:50:00,
2013-01-26 11:55:00,32.8,25.1,30.15,SSE,157,0.0,5.0,73,0.00,,---,0.00,VWS V14.00,2013-01-26 16:55:00,
2013-01-26 12:00:00,32.9,24.9,30.15,SSE,157,0.0,0.0,72,0.00,,---,0.00,VWS V14.00,2013-01-26 17:00:00,
2013-01-26 12:05:00,32.7,24.7,30.16,SSE,159,0.0,4.0,72,0.00,,---,0.00,VWS V14.00,2013-01-26 17:05:00,
2013-01-26 12:10:00,32.7,25.0,30.15,SSE,159,0.0,4.0,73,0.00,,---,0.00,VWS V14.00,2013-01-26 17:10:00,
2013-01-26 12:15:00,32.7,24.7,30.15,SSE,159,0.0,4.0,72,0.00,,---,0.00,VWS V14.00,2013-01-26 17:15:00,
2013-01-26 12:20:00,32.8,24.8,30.15,SSE,159,0.0,4.0,72,0.00,,---,0.00,VWS V14.00,2013-01-26 17:20:00,
2013-01-26 12:25:00,32.9,24.9,30.14,SSE,155,0.0,5.0,72,0.00,,---,0.00,VWS V14.00,2013-01-26 17:25:00,
2013-01-26 12:30:00,33.2,25.2,30.14,SE,143,0.0,5.0,72,0.00,,---,0.00,VWS V14.00,2013-01-26 17:30:00,
2013-01-26 12:35:00,32.9,24.9,30.14,SE,146,0.0,5.0,72,0.00,,---,0.00,VWS V14.00,2013-01-26 17:35:00,
2013-01-26 12:40:00,33.1,25.1,30.14,SE,145,0.0,5.0,72,0.00,,---,0.00,VWS V14.00,2013-01-26 17:40:00,
2013-01-26 12:45:00,33.2,25.2,30.14,SE,145,1.0,5.0,72,0.00,,---,0.00,VWS V14.00,2013-01-26 17:45:00,
2013-01-26 12:50:00,33.3,25.3,30.14,SE,142,0.0,5.0,72,0.00,,---,0.00,VWS V14.00,2013-01-26 17:50:00,
2013-01-26 12:55:00,33.6,26.2,30.13,SSE,159,1.0,5.0,74,0.00,,---,0.00,VWS V14.00,2013-01-26 17:55:00,
2013-01-26 13:00:00,34.0,25.6,30.13,ESE,117,1.0,6.0,71,0.00,,---,0.00,VWS V14.00,2013-01-26 18:00:00,
2013-01-26 13:05:00,33.9,25.5,30.14,ESE,119,1.0,6.0,71,0.00,,---,0.00,VWS V14.00,2013-01-26 18:05:00,
2013-01-26 13:10:00,33.7,25.0,30.13,ESE,119,0.0,6.0,70,0.00,,---,0.00,VWS V14.00,2013-01-26 18:10:00,
2013-01-26 13:15:00,33.5,24.8,30.13,ESE,119,0.0,6.0,70,0.00,,---,0.00,VWS V14.00,2013-01-26 18:15:00,
2013-01-26 13:20:00,33.8,25.1,30.13,ESE,119,0.0,6.0,70,0.00,,---,0.00,VWS V14.00,2013-01-26 18:20:00,
2013-01-26 13:25:00,34.3,25.5,30.13,ESE,119,0.0,6.0,70,0.00,,---,0.00,VWS V14.00,2013-01-26 18:25:00,
2013-01-26 13:30:00,34.5,25.4,30.13,ESE,119,0.0,0.0,69,0.00,,---,0.00,VWS V14.00,2013-01-26 18:30:00,
2013-01-26 13:35:00,34.5,24.7,30.13,ESE,119,0.0,0.0,67,0.00,,---,0.00,VWS V14.00,2013-01-26 18:35:00,
2013-01-26 13:40:00,34.8,25.3,30.13,ENE,73,2.0,5.0,68,0.00,,---,0.00,VWS V14.00,2013-01-26 18:40:00,
2013-01-26 13:45:00,34.9,25.1,30.13,ENE,73,0.0,5.0,67,0.00,,---,0.00,VWS V14.00,2013-01-26 18:45:00,
2013-01-26 13:50:00,34.6,24.4,30.13,ENE,73,0.0,5.0,66,0.00,,---,0.00,VWS V14.00,2013-01-26 18:50:00,
2013-01-26 13:55:00,34.6,24.1,30.13,ENE,73,0.0,5.0,65,0.00,,---,0.00,VWS V14.00,2013-01-26 18:55:00,
2013-01-26 14:00:00,35.2,25.0,30.13,ENE,73,0.0,0.0,66,0.00,,---,0.00,VWS V14.00,2013-01-26 19:00:00,
2013-01-26 14:05:00,35.4,24.8,30.13,NNE,22,0.0,5.0,65,0.00,,---,0.00,VWS V14.00,2013-01-26 19:05:00,
2013-01-26 14:10:00,35.5,24.9,30.13,NNE,25,2.0,5.0,65,0.00,,---,0.00,VWS V14.00,2013-01-26 19:10:00,
2013-01-26 14:15:00,35.9,25.3,30.13,NNE,18,6.0,7.0,65,0.00,,---,0.00,VWS V14.00,2013-01-26 19:15:00,
2013-01-26 14:20:00,36.2,25.2,30.14,NNE,26,3.0,8.0,64,0.00,,---,0.00,VWS V14.00,2013-01-26 19:20:00,
2013-01-26 14:25:00,36.4,25.0,30.14,North,355,5.0,8.0,63,0.00,,---,0.00,VWS V14.00,2013-01-26 19:25:00,
2013-01-26 14:30:00,36.7,25.3,30.14,North,355,6.0,8.0,63,0.00,,---,0.00,VWS V14.00,2013-01-26 19:30:00,
2013-01-26 14:35:00,36.6,24.8,30.14,North,355,8.0,9.0,62,0.00,,---,0.00,VWS V14.00,2013-01-26 19:35:00,
2013-01-26 14:40:00,36.7,24.5,30.14,North,5,4.0,9.0,61,0.00,,---,0.00,VWS V14.00,2013-01-26 19:40:00,
2013-01-26 14:45:00,36.3,24.1,30.14,North,5,4.0,9.0,61,0.00,,---,0.00,VWS V14.00,2013-01-26 19:45:00,
2013-01-26 14:50:00,36.9,25.1,30.14,North,360,5.0,9.0,62,0.00,,---,0.00,VWS V14.00,2013-01-26 19:50:00,
2013-01-26 14:55:00,37.2,24.6,30.14,North,5,4.0,9.0,60,0.00,,---,0.00,VWS V14.00,2013-01-26 19:55:00,
2013-01-26 15:00:00,36.5,24.0,30.14,NNE,18,5.0,8.0,60,0.00,,---,0.00,VWS V14.00,2013-01-26 20:00:00,
2013-01-26 15:05:00,36.2,24.1,30.15,NNW,338,7.0,10.0,61,0.00,,---,0.00,VWS V14.00,2013-01-26 20:05:00,
2013-01-26 15:10:00,36.0,23.9,30.15,North,355,5.0,10.0,61,0.00,,---,0.00,VWS V14.00,2013-01-26 20:10:00,
2013-01-26 15:15:00,36.3,24.1,30.15,North,355,4.0,10.0,61,0.00,,---,0.00,VWS V14.00,2013-01-26 20:15:00,
2013-01-26 15:20:00,36.7,24.9,30.15,North,5,4.0,10.0,62,0.00,,---,0.00,VWS V14.00,2013-01-26 20:20:00,
2013-01-26 15:25:00,36.9,25.1,30.16,NNE,30,3.0,10.0,62,0.00,,---,0.00,VWS V14.00,2013-01-26 20:25:00,
2013-01-26 15:30:00,37.1,24.9,30.15,North,355,4.0,8.0,61,0.00,,---,0.00,VWS V14.00,2013-01-26 20:30:00,
2013-01-26 15:35:00,36.9,25.5,30.16,NNE,29,6.0,9.0,63,0.00,,---,0.00,VWS V14.00,2013-01-26 20:35:00,
2013-01-26 15:40:00,36.6,24.8,30.16,NNE,14,2.0,9.0,62,0.00,,---,0.00,VWS V14.00,2013-01-26 20:40:00,
2013-01-26 15:45:00,36.4,25.8,30.16,NNE,30,8.0,11.0,65,0.00,,---,0.00,VWS V14.00,2013-01-26 20:45:00,
2013-01-26 15:50:00,36.3,25.7,30.16,NNE,17,9.0,11.0,65,0.00,,---,0.00,VWS V14.00,2013-01-26 20:50:00,
2013-01-26 15:55:00,36.2,25.6,30.16,ENE,65,3.0,11.0,65,0.00,,---,0.00,VWS V14.00,2013-01-26 20:55:00,
2013-01-26 16:00:00,36.0,25.4,30.16,NNE,20,2.0,7.0,65,0.00,,---,0.00,VWS V14.00,2013-01-26 21:00:00,
2013-01-26 16:05:00,35.7,25.5,30.16,NE,47,4.0,11.0,66,0.00,,---,0.00,VWS V14.00,2013-01-26 21:05:00,
2013-01-26 16:10:00,35.7,25.5,30.17,NE,38,6.0,11.0,66,0.00,,---,0.00,VWS V14.00,2013-01-26 21:10:00,
2013-01-26 16:15:00,35.6,25.7,30.17,NNE,18,4.0,11.0,67,0.00,,---,0.00,VWS V14.00,2013-01-26 21:15:00,
2013-01-26 16:20:00,35.4,25.5,30.17,North,5,5.0,11.0,67,0.00,,---,0.00,VWS V14.00,2013-01-26 21:20:00,
2013-01-26 16:25:00,35.2,25.4,30.17,NE,35,6.0,11.0,67,0.00,,---,0.00,VWS V14.00,2013-01-26 21:25:00,
2013-01-26 16:30:00,35.1,25.3,30.17,NE,53,6.0,11.0,67,0.00,,---,0.00,VWS V14.00,2013-01-26 21:30:00,
2013-01-26 16:35:00,35.0,25.2,30.17,ENE,57,7.0,11.0,67,0.00,,---,0.00,VWS V14.00,2013-01-26 21:35:00,
2013-01-26 16:40:00,34.7,25.2,30.18,NNE,12,6.0,11.0,68,0.00,,---,0.00,VWS V14.00,2013-01-26 21:40:00,
2013-01-26 16:45:00,34.3,25.2,30.18,NNE,33,7.0,11.0,69,0.00,,---,0.00,VWS V14.00,2013-01-26 21:45:00,
2013-01-26 16:50:00,34.1,25.0,30.18,NNE,12,6.0,11.0,69,0.00,,---,0.00,VWS V14.00,2013-01-26 21:50:00,
2013-01-26 16:55:00,33.9,24.8,30.19,NE,42,5.0,12.0,69,0.00,,---,0.00,VWS V14.00,2013-01-26 21:55:00,
2013-01-26 17:00:00,33.7,24.6,30.19,NE,45,0.0,7.0,69,0.00,,---,0.00,VWS V14.00,2013-01-26 22:00:00,
2013-01-26 17:05:00,33.5,24.4,30.19,NNE,25,1.0,7.0,69,0.00,,---,0.00,VWS V14.00,2013-01-26 22:05:00,
2013-01-26 17:10:00,33.2,24.1,30.19,NNE,14,5.0,7.0,69,0.00,,---,0.00,VWS V14.00,2013-01-26 22:10:00,
2013-01-26 17:15:00,33.0,24.3,30.20,NNE,23,0.0,7.0,70,0.00,,---,0.00,VWS V14.00,2013-01-26 22:15:00,
2013-01-26 17:20:00,32.7,24.0,30.20,NNE,24,0.0,7.0,70,0.00,,---,0.00,VWS V14.00,2013-01-26 22:20:00,
2013-01-26 17:25:00,32.4,23.7,30.21,NNE,19,2.0,7.0,70,0.00,,---,0.00,VWS V14.00,2013-01-26 22:25:00,
2013-01-26 17:30:00,31.9,23.6,30.21,NNE,19,0.0,3.0,71,0.00,,---,0.00,VWS V14.00,2013-01-26 22:30:00,
2013-01-26 17:35:00,31.9,23.2,30.21,NNW,334,6.0,6.0,70,0.00,,---,0.00,VWS V14.00,2013-01-26 22:35:00,
2013-01-26 17:40:00,31.7,23.0,30.21,North,360,2.0,6.0,70,0.00,,---,0.00,VWS V14.00,2013-01-26 22:40:00,
2013-01-26 17:45:00,31.5,22.5,30.22,North,355,1.0,11.0,69,0.00,,---,0.00,VWS V14.00,2013-01-26 22:45:00,
2013-01-26 17:50:00,31.2,22.6,30.22,NNE,15,0.0,11.0,70,0.00,,---,0.00,VWS V14.00,2013-01-26 22:50:00,
2013-01-26 17:55:00,30.8,22.2,30.22,North,360,0.0,11.0,70,0.00,,---,0.00,VWS V14.00,2013-01-26 22:55:00,
2013-01-26 18:00:00,31.0,21.7,30.22,NNE,22,0.0,4.0,68,0.00,,---,0.00,VWS V14.00,2013-01-26 23:00:00,
2013-01-26 18:05:00,31.4,21.0,30.23,North,360,0.0,9.0,65,0.00,,---,0.00,VWS V14.00,2013-01-26 23:05:00,
2013-01-26 18:10:00,31.5,21.1,30.23,North,9,5.0,9.0,65,0.00,,---,0.00,VWS V14.00,2013-01-26 23:10:00,
2013-01-26 18:15:00,31.3,20.5,30.23,NW,325,7.0,9.0,64,0.00,,---,0.00,VWS V14.00,2013-01-26 23:15:00,
2013-01-26 18:20:00,31.3,20.2,30.24,NNW,327,11.0,12.0,63,0.00,,---,0.00,VWS V14.00,2013-01-26 23:20:00,
2013-01-26 18:25:00,31.2,20.1,30.24,NW,326,0.0,12.0,63,0.00,,---,0.00,VWS V14.00,2013-01-26 23:25:00,
2013-01-26 18:30:00,31.1,20.0,30.24,NW,312,7.0,9.0,63,0.00,,---,0.00,VWS V14.00,2013-01-26 23:30:00,
2013-01-26 18:35:00,31.4,19.9,30.24,NNW,328,0.0,9.0,62,0.00,,---,0.00,VWS V14.00,2013-01-26 23:35:00,
2013-01-26 18:40:00,31.3,19.8,30.24,North,355,6.0,9.0,62,0.00,,---,0.00,VWS V14.00,2013-01-26 23:40:00,
2013-01-26 18:45:00,31.4,19.5,30.25,North,355,4.0,9.0,61,0.00,,---,0.00,VWS V14.00,2013-01-26 23:45:00,
2013-01-26 18:50:00,31.4,19.5,30.25,NNW,342,4.0,9.0,61,0.00,,---,0.00,VWS V14.00,2013-01-26 23:50:00,
2013-01-26 18:55:00,31.2,19.7,30.25,NNW,344,0.0,9.0,62,0.00,,---,0.00,VWS V14.00,2013-01-26 23:55:00,
2013-01-26 19:00:00,31.0,19.9,30.25,North,355,0.0,1.0,63,0.00,,---,0.00,VWS V14.00,2013-01-27 00:00:00,
2013-01-26 19:05:00,30.4,19.7,30.25,North,355,0.0,1.0,64,0.00,,---,0.00,VWS V14.00,2013-01-27 00:05:00,
2013-01-26 19:10:00,30.2,19.5,30.25,North,350,1.0,2.0,64,0.00,,---,0.00,VWS V14.00,2013-01-27 00:10:00,
2013-01-26 19:15:00,29.9,19.6,30.25,NNW,339,4.0,8.0,65,0.00,,---,0.00,VWS V14.00,2013-01-27 00:15:00,
2013-01-26 19:20:00,29.8,19.8,30.25,NW,320,8.0,10.0,66,0.00,,---,0.00,VWS V14.00,2013-01-27 00:20:00,
2013-01-26 19:25:00,30.1,20.1,30.25,North,349,6.0,11.0,66,0.00,,---,0.00,VWS V14.00,2013-01-27 00:25:00,
2013-01-26 19:30:00,30.3,20.3,30.25,NW,321,7.0,9.0,66,0.00,,---,0.00,VWS V14.00,2013-01-27 00:30:00,
2013-01-26 19:35:00,30.5,20.5,30.26,NNW,331,6.0,9.0,66,0.00,,---,0.00,VWS V14.00,2013-01-27 00:35:00,
2013-01-26 19:40:00,30.8,20.8,30.26,NNW,328,5.0,9.0,66,0.00,,---,0.00,VWS V14.00,2013-01-27 00:40:00,
2013-01-26 19:45:00,31.0,20.6,30.26,NNW,336,5.0,9.0,65,0.00,,---,0.00,VWS V14.00,2013-01-27 00:45:00,
2013-01-26 19:50:00,30.8,20.4,30.27,NNW,336,5.0,9.0,65,0.00,,---,0.00,VWS V14.00,2013-01-27 00:50:00,
2013-01-26 19:55:00,30.6,20.6,30.27,NNW,341,4.0,9.0,66,0.00,,---,0.00,VWS V14.00,2013-01-27 00:55:00,
2013-01-26 20:00:00,30.7,20.7,30.27,NNW,331,4.0,7.0,66,0.00,,---,0.00,VWS V14.00,2013-01-27 01:00:00,
2013-01-26 20:05:00,30.9,20.5,30.27,NNW,331,5.0,8.0,65,0.00,,---,0.00,VWS V14.00,2013-01-27 01:05:00,
2013-01-26 20:10:00,31.0,20.6,30.27,NNW,333,5.0,8.0,65,0.00,,---,0.00,VWS V14.00,2013-01-27 01:10:00,
2013-01-26 20:15:00,31.1,20.7,30.27,NNW,341,4.0,8.0,65,0.00,,---,0.00,VWS V14.00,2013-01-27 01:15:00,
2013-01-26 20:20:00,31.2,20.8,30.27,NNW,333,2.0,8.0,65,0.00,,---,0.00,VWS V14.00,2013-01-27 01:20:00,
2013-01-26 20:25:00,31.4,21.0,30.28,NW,326,6.0,8.0,65,0.00,,---,0.00,VWS V14.00,2013-01-27 01:25:00,
2013-01-26 20:30:00,31.5,20.7,30.28,NNW,330,1.0,5.0,64,0.00,,---,0.00,VWS V14.00,2013-01-27 01:30:00,
2013-01-26 20:35:00,31.6,20.8,30.28,NNW,330,1.0,5.0,64,0.00,,---,0.00,VWS V14.00,2013-01-27 01:35:00,
2013-01-26 20:40:00,31.6,20.8,30.28,NNW,330,2.0,5.0,64,0.00,,---,0.00,VWS V14.00,2013-01-27 01:40:00,
2013-01-26 20:45:00,31.6,21.2,30.29,NNW,330,2.0,5.0,65,0.00,,---,0.00,VWS V14.00,2013-01-27 01:45:00,
2013-01-26 20:50:00,31.5,20.7,30.28,NNW,344,0.0,7.0,64,0.00,,---,0.00,VWS V14.00,2013-01-27 01:50:00,
2013-01-26 20:55:00,31.6,20.8,30.29,NW,314,4.0,7.0,64,0.00,,---,0.00,VWS V14.00,2013-01-27 01:55:00,
2013-01-26 21:00:00,31.7,20.9,30.29,NNW,329,1.0,5.0,64,0.00,,---,0.00,VWS V14.00,2013-01-27 02:00:00,
2013-01-26 21:05:00,31.9,20.4,30.29,NNW,348,0.0,7.0,62,0.00,,---,0.00,VWS V14.00,2013-01-27 02:05:00,
2013-01-26 21:10:00,32.0,20.5,30.30,North,360,2.0,7.0,62,0.00,,---,0.00,VWS V14.00,2013-01-27 02:10:00,
2013-01-26 21:15:00,32.0,20.5,30.30,NNW,342,2.0,7.0,62,0.00,,---,0.00,VWS V14.00,2013-01-27 02:15:00,
2013-01-26 21:20:00,31.9,20.4,30.30,NNW,340,5.0,7.0,62,0.00,,---,0.00,VWS V14.00,2013-01-27 02:20:00,
2013-01-26 21:25:00,31.7,20.6,30.31,NNW,335,2.0,7.0,63,0.00,,---,0.00,VWS V14.00,2013-01-27 02:25:00,
2013-01-26 21:30:00,31.7,20.6,30.31,NNW,333,0.0,4.0,63,0.00,,---,0.00,VWS V14.00,2013-01-27 02:30:00,
2013-01-26 21:35:00,31.7,20.6,30.31,North,355,4.0,6.0,63,0.00,,---,0.00,VWS V14.00,2013-01-27 02:35:00,
2013-01-26 21:40:00,31.7,20.9,30.32,North,11,1.0,6.0,64,0.00,,---,0.00,VWS V14.00,2013-01-27 02:40:00,
2013-01-26 21:45:00,31.7,20.9,30.32,NNW,346,5.0,7.0,64,0.00,,---,0.00,VWS V14.00,2013-01-27 02:45:00,
2013-01-26 21:50:00,31.7,20.9,30.32,North,351,0.0,7.0,64,0.00,,---,0.00,VWS V14.00,2013-01-27 02:50:00,
2013-01-26 21:55:00,31.6,20.8,30.33,NNW,344,6.0,7.0,64,0.00,,---,0.00,VWS V14.00,2013-01-27 02:55:00,
2013-01-26 22:00:00,31.6,20.8,30.32,North,355,1.0,9.0,64,0.00,,---,0.00,VWS V14.00,2013-01-27 03:00:00,
2013-01-26 22:05:00,31.6,20.5,30.33,NNW,345,5.0,9.0,63,0.00,,---,0.00,VWS V14.00,2013-01-27 03:05:00,
2013-01-26 22:10:00,31.5,20.7,30.33,NNW,344,7.0,9.0,64,0.00,,---,0.00,VWS V14.00,2013-01-27 03:10:00,
2013-01-26 22:15:00,31.5,20.4,30.33,North,5,6.0,9.0,63,0.00,,---,0.00,VWS V14.00,2013-01-27 03:15:00,
2013-01-26 22:20:00,31.5,20.0,30.33,NNW,346,5.0,10.0,62,0.00,,---,0.00,VWS V14.00,2013-01-27 03:20:00,
2013-01-26 22:25:00,31.6,20.1,30.33,NNW,328,5.0,10.0,62,0.00,,---,0.00,VWS V14.00,2013-01-27 03:25:00,
2013-01-26 22:30:00,31.6,20.1,30.33,NNW,336,1.0,7.0,62,0.00,,---,0.00,VWS V14.00,2013-01-27 03:30:00,
2013-01-26 22:35:00,31.5,20.4,30.34,NNW,337,0.0,7.0,63,0.00,,---,0.00,VWS V14.00,2013-01-27 03:35:00,
2013-01-26 22:40:00,31.4,19.9,30.34,NNW,343,2.0,8.0,62,0.00,,---,0.00,VWS V14.00,2013-01-27 03:40:00,
2013-01-26 22:45:00,31.3,19.8,30.34,NNW,336,1.0,8.0,62,0.00,,---,0.00,VWS V14.00,2013-01-27 03:45:00,
2013-01-26 22:50:00,31.4,19.5,30.34,NNE,17,4.0,8.0,61,0.00,,---,0.00,VWS V14.00,2013-01-27 03:50:00,
2013-01-26 22:55:00,31.4,19.5,30.35,North,355,1.0,8.0,61,0.00,,---,0.00,VWS V14.00,2013-01-27 03:55:00,
2013-01-26 23:00:00,31.2,19.3,30.35,NNW,342,4.0,9.0,61,0.00,,---,0.00,VWS V14.00,2013-01-27 04:00:00,
2013-01-26 23:05:00,31.2,19.3,30.36,North,355,6.0,9.0,61,0.00,,---,0.00,VWS V14.00,2013-01-27 04:05:00,
2013-01-26 23:10:00,31.2,19.3,30.36,North,11,3.0,9.0,61,0.00,,---,0.00,VWS V14.00,2013-01-27 04:10:00,
2013-01-26 23:15:00,31.4,19.1,30.36,North,355,6.0,9.0,60,0.00,,---,0.00,VWS V14.00,2013-01-27 04:15:00,
2013-01-26 23:20:00,31.4,19.1,30.36,NW,323,7.0,9.0,60,0.00,,---,0.00,VWS V14.00,2013-01-27 04:20:00,
2013-01-26 23:25:00,31.4,19.1,30.36,NW,310,6.0,12.0,60,0.00,,---,0.00,VWS V14.00,2013-01-27 04:25:00,
2013-01-26 23:30:00,31.4,19.5,30.36,NW,310,0.0,0.0,61,0.00,,---,0.00,VWS V14.00,2013-01-27 04:30:00,
2013-01-26 23:35:00,31.2,19.3,30.36,NNW,342,0.0,2.0,61,0.00,,---,0.00,VWS V14.00,2013-01-27 04:35:00,
2013-01-26 23:40:00,31.2,19.7,30.36,NNW,342,0.0,4.0,62,0.00,,---,0.00,VWS V14.00,2013-01-27 04:40:00,
2013-01-26 23:45:00,31.1,19.2,30.36,NW,324,7.0,9.0,61,0.00,,---,0.00,VWS V14.00,2013-01-27 04:45:00,
2013-01-26 23:50:00,31.2,19.7,30.36,NNW,344,8.0,11.0,62,0.00,,---,0.00,VWS V14.00,2013-01-27 04:50:00,
2013-01-26 23:55:00,31.1,19.6,30.36,North,9,6.0,11.0,62,0.00,,---,0.00,VWS V14.00,2013-01-27 04:55:00,